DF9PV-5 Weather Reports


Display with metric or nautical units.
time (UTC)temp
F
wind
direction
speed
MPH
gust
MPH
rain 1hr
in
rain 24hr
in
rain mn
in
humidity
%
barometer
mb
20260502130532 82 4 2.0 8.0 0.00 0.00 0.00 34 1017.2
20260502123547 83 344 2.0 10.0 0.00 0.00 0.00 34 1017.6
20260502123040 83 352 2.0 13.0 0.00 0.00 0.00 35 1017.6
20260502122548 82 8 1.0 13.0 0.00 0.00 0.00 36 1017.5
20260502122028 83 356 3.0 8.0 0.00 0.00 0.00 34 1017.7
20260502121524 83 4 1.0 5.0 0.00 0.00 0.00 35 1017.7
20260502121020 84 1 0.0 5.0 0.00 0.00 0.00 34 1017.8
20260502120535 83 345 2.0 10.0 0.00 0.00 0.00 34 1017.8
20260502115524 84 343 1.0 10.0 0.00 0.00 0.00 34 1017.9
20260502115039 85 348 1.0 3.0 0.00 0.00 0.00 34 1018.1
20260502114537 85 336 1.0 5.0 0.00 0.00 0.00 34 1018.2
20260502114121 85 353 0.0 3.0 0.00 0.00 0.00 34 1018.2
20260502113556 83 357 1.0 5.0 0.00 0.00 0.00 35 1018.2
20260502113020 82 2 1.0 3.0 0.00 0.00 0.00 35 1018.4
20260502112544 82 2 1.0 5.0 0.00 0.00 0.00 35 1018.4
20260502112028 81 12 2.0 8.0 0.00 0.00 0.00 35 1018.5
20260502111524 81 14 1.0 5.0 0.00 0.00 0.00 35 1018.5
20260502111101 80 355 0.0 5.0 0.00 0.00 0.00 37 1018.6
20260502110532 80 359 1.0 8.0 0.00 0.00 0.00 36 1018.6
20260502110028 80 348 0.0 5.0 0.00 0.00 0.00 35 1018.7
20260502105544 81 350 1.0 5.0 0.00 0.00 0.00 34 1018.8
20260502105043 82 360 1.0 5.0 0.00 0.00 0.00 34 1018.9
20260502104532 79 358 0.0 5.0 0.00 0.00 0.00 36 1018.9
20260502104048 78 10 1.0 5.0 0.00 0.00 0.00 37 1018.9
20260502103524 78 8 1.0 8.0 0.00 0.00 0.00 38 1019.0
20260502103020 75 4 0.0 5.0 0.00 0.00 0.00 40 1019.1
20260502102532 74 4 1.0 5.0 0.00 0.00 0.00 40 1019.1
20260502102028 74 1 1.0 5.0 0.00 0.00 0.00 40 1019.2
20260502101525 75 14 1.0 5.0 0.00 0.00 0.00 39 1019.2
20260502101020 76 10 1.0 5.0 0.00 0.00 0.00 40 1019.3
20260502100521 76 1 1.0 8.0 0.00 0.00 0.00 39 1019.4
20260502091021 71 5 1.0 5.0 0.00 0.00 0.00 42
20260502090533 71 10 2.0 5.0 0.00 0.00 0.00 41
20260502071024 58 0.0 0.0 0.00 0.00 0.00 59 1021.3
20260502070605 57 0.0 0.0 0.00 0.00 0.00 61 1021.4
20260502070045 58 3 0.0 3.0 0.00 0.00 0.00 60 1021.5
20260502065525 58 1 0.0 3.0 0.00 0.00 0.00 59 1021.6
20260502065021 57 356 0.0 3.0 0.00 0.00 0.00 62 1021.5
20260502064533 56 5 0.0 5.0 0.00 0.00 0.00 63 1021.5
20260502064052 56 359 0.0 3.0 0.00 0.00 0.00 64 1021.5
20260502063525 56 18 0.0 5.0 0.00 0.00 0.00 65 1021.6
20260502063104 55 14 0.0 5.0 0.00 0.00 0.00 64 1021.6
20260502062533 56 10 1.0 5.0 0.00 0.00 0.00 65 1021.6
20260502062029 56 3 0.0 3.0 0.00 0.00 0.00 63 1021.6
20260502061525 56 0.0 0.0 0.00 0.00 0.00 61 1021.6
20260502061040 56 0.0 0.0 0.00 0.00 0.00 63 1021.6
20260502060521 55 9 0.0 3.0 0.00 0.00 0.00 63 1021.6
20260502060029 54 0.0 0.0 0.00 0.00 0.00 64 1021.6
20260502055525 53 0.0 0.0 0.00 0.00 0.00 66 1021.6
20260502055021 51 0.0 0.0 0.00 0.00 0.00 70 1021.6
20260502054533 51 0.0 0.0 0.00 0.00 0.00 70 1021.6
20260502054045 48 0.0 0.0 0.00 0.00 0.00 73 1021.6
20260502053549 47 330 0.0 3.0 0.00 0.00 0.00 75 1021.5
20260502053037 47 0.0 0.0 0.00 0.00 0.00 77 1021.6
20260502052533 45 0.0 0.0 0.00 0.00 0.00 79 1021.5
20260502052029 44 0.0 0.0 0.00 0.00 0.00 82 1021.4
20260502051601 44 0.0 0.0 0.00 0.00 0.00 83 1021.4
20260502051057 43 0.0 0.0 0.00 0.00 0.00 84 1021.4
20260502050553 43 0.0 0.0 0.00 0.00 0.00 85 1021.3
20260502050105 43 0.0 0.0 0.00 0.00 0.00 85 1021.3
20260502045525 43 0.0 0.0 0.00 0.00 0.00 85 1021.3
20260502045040 43 0.0 0.0 0.00 0.00 0.00 85 1021.2
20260502044523 43 0.0 0.0 0.00 0.00 0.00 85 1021.2
20260502044105 43 0.0 0.0 0.00 0.00 0.00 86 1021.3
20260502043604 43 0.0 0.0 0.00 0.00 0.00 85 1021.3
20260502043041 42 0.0 0.0 0.00 0.00 0.00 86 1021.3
20260502042552 42 0.0 0.0 0.00 0.00 0.00 86 1021.4
20260502042049 42 0.0 0.0 0.00 0.00 0.00 86 1021.3
20260502041528 42 0.0 0.0 0.00 0.00 0.00 86 1021.4
20260502041100 42 0.0 0.0 0.00 0.00 0.00 86 1021.5
20260502040553 43 0.0 0.0 0.00 0.00 0.00 85 1021.3
20260502040036 0 0.0 0.0 0.00 0.00 0.00 1021.4
20260502035616 43 0.0 0.0 0.00 0.00 0.00 84 1021.5
20260502035100 0 0.0 0.0 0.00 0.00 0.00 1021.5
20260502034536 0 0.0 0.0 0.00 0.00 0.00 1021.5
20260502034121 0 0.0 0.0 0.00 0.00 0.00 1021.6
20260502033601 0 0.0 0.0 0.00 0.00 0.00 1021.5
20260502033044 44 0.0 0.0 0.00 0.00 0.00 84 1021.5
20260502032521 0 0.0 0.0 0.00 0.00 0.00 1021.5
20260502032104 44 0.0 0.0 0.00 0.00 0.00 84 1021.4
20260502031547 44 0.0 0.0 0.00 0.00 0.00 84 1021.5
20260502031105 44 0.0 0.0 0.00 0.00 0.00 84 1021.5
20260502030549 44 0.0 0.0 0.00 0.00 0.00 83 1021.5
20260502030049 44 0.0 0.0 0.00 0.00 0.00 83 1021.5
20260502025528 0 0.0 0.0 0.00 0.00 0.00 1021.5
20260502025116 0 0.0 0.0 0.00 0.00 0.00 1021.4
20260502024553 44 0.0 0.0 0.00 0.00 0.00 83 1021.5
20260502024033 0 0.0 0.0 0.00 0.00 0.00 1021.5
20260502023616 0 0.0 0.0 0.00 0.00 0.00 1021.5
20260502023057 45 0.0 0.0 0.00 0.00 0.00 82 1021.4
20260502022536 0 0.0 0.0 0.00 0.00 0.00 1021.5
20260502022141 0 0.0 0.0 0.00 0.00 0.00 1021.5
20260502021601 0 0.0 0.0 0.00 0.00 0.00 1021.4
20260502021040 0 0.0 0.0 0.00 0.00 0.00 1021.4
20260502020521 46 0.0 0.0 0.00 0.00 0.00 79 1021.4
20260502020105 46 0.0 0.0 0.00 0.00 0.00 79 1021.4
20260502015525 46 0.0 0.0 0.00 0.00 0.00 79 1021.4
20260502015025 0 0.0 0.0 0.00 0.00 0.00 1021.5
20260502014612 0 0.0 0.0 0.00 0.00 0.00 1021.5
20260502014048 47 0.0 0.0 0.00 0.00 0.00 77 1021.5
20260502013529 0 0.0 0.0 0.00 0.00 0.00 1021.5
20260502013133 0 0.0 0.0 0.00 0.00 0.00 1021.6
20260502012553 47 0.0 0.0 0.00 0.00 0.00 76 1021.5
20260502012032 47 0.0 0.0 0.00 0.00 0.00 76 1021.6
20260502011037 47 0.0 0.0 0.00 0.00 0.00 76 1021.6
20260502010537 47 0.0 0.0 0.00 0.00 0.00 75 1021.7
20260502010121 47 0.0 0.0 0.00 0.00 0.00 75 1021.8
20260502005601 47 0.0 0.0 0.00 0.00 0.00 76 1021.8
20260502005040 47 336 1.0 3.0 0.00 0.00 0.00 75 1021.9
20260502004520 47 0.0 0.0 0.00 0.00 0.00 76 1021.9
20260502004105 48 0.0 0.0 0.00 0.00 0.00 76 1022.0
20260502003544 48 0.0 0.0 0.00 0.00 0.00 76 1022.0
20260502003028 0 0.0 0.0 0.00 0.00 0.00 1022.0
20260502002609 0 0.0 0.0 0.00 0.00 0.00 1022.0
20260502002109 0 0.0 0.0 0.00 0.00 0.00 1022.0
20260502001531 0 0.0 0.0 0.00 0.00 0.00 1022.1
20260502001112 0 0.0 0.0 0.00 0.00 0.00 1022.1
20260502000552 0 0.0 0.0 0.00 0.00 0.00 1022.1
20260502000056 0 0.0 0.0 0.00 0.00 0.00 1022.2
20260501235617 0 0.0 0.0 0.00 0.00 0.00 1022.3
20260501235117 50 0.0 0.0 0.00 0.00 0.00 71 1022.2
20260501234537 0 0.0 0.0 0.00 0.00 0.00 1022.3
20260501234121 50 329 1.0 3.0 0.00 0.00 0.00 72 1022.4
20260501233601 50 0.0 0.0 0.00 0.00 0.00 69 1022.4
20260501233037 0 0.0 0.0 0.00 0.00 0.00 1022.4
20260501232521 0 0.0 0.0 0.00 0.00 0.00 1022.4
20260501232108 0 0.0 0.0 0.00 0.00 0.00 1022.4
20260501231545 50 0.0 0.0 0.00 0.00 0.00 70 1022.3
20260501231128 0 0.0 0.0 0.00 0.00 0.00 1022.3
20260501230608 51 0.0 0.0 0.00 0.00 0.00 69 1022.3
20260501230052 51 0.0 0.0 0.00 0.00 0.00 68 1022.4
20260501225529 51 0.0 0.0 0.00 0.00 0.00 68 1022.4
20260501225021 51 0.0 0.0 0.00 0.00 0.00 68 1022.4
20260501224553 52 340 0.0 3.0 0.00 0.00 0.00 67 1022.4
20260501224032 52 0.0 0.0 0.00 0.00 0.00 67 1022.5
20260501223542 52 0.0 0.0 0.00 0.00 0.00 67 1022.4
20260501223021 52 0.0 0.0 0.00 0.00 0.00 66 1022.5
20260501222537 0 0.0 0.0 0.00 0.00 0.00 1022.4
20260501222141 0 0.0 0.0 0.00 0.00 0.00 1022.4
20260501221600 0 0.0 0.0 0.00 0.00 0.00 1022.5
20260501221041 53 0.0 0.0 0.00 0.00 0.00 63 1022.5
20260501220544 54 0.0 0.0 0.00 0.00 0.00 63 1022.5
20260501220045 0 0.0 0.0 0.00 0.00 0.00 1022.5
20260501215608 54 0.0 0.0 0.00 0.00 0.00 62 1022.4
20260501215024 54 341 1.0 3.0 0.00 0.00 0.00 62 1022.5
20260501214633 54 338 0.0 3.0 0.00 0.00 0.00 62 1022.5
20260501214049 54 335 1.0 5.0 0.00 0.00 0.00 62 1022.5
20260501213528 54 324 2.0 3.0 0.00 0.00 0.00 62 1022.5
20260501213112 0 0.0 0.0 0.00 0.00 0.00 1022.5
20260501212552 55 0.0 0.0 0.00 0.00 0.00 60 1022.5
20260501212053 56 331 2.0 5.0 0.00 0.00 0.00 58 1022.5
20260501211549 56 321 2.0 5.0 0.00 0.00 0.00 58 1022.5
20260501211037 56 324 3.0 5.0 0.00 0.00 0.00 58 1022.5
20260501210537 56 329 3.0 5.0 0.00 0.00 0.00 58 1022.5
20260501210032 56 334 2.0 5.0 0.00 0.00 0.00 58 1022.4
20260501205542 57 338 0.0 3.0 0.00 0.00 0.00 58 1022.4
20260501205025 57 335 2.0 3.0 0.00 0.00 0.00 58 1022.4
20260501204521 57 317 0.0 3.0 0.00 0.00 0.00 57 1022.4
20260501204029 57 331 1.0 5.0 0.00 0.00 0.00 57 1022.4
20260501203525 58 335 1.0 5.0 0.00 0.00 0.00 56 1022.4
20260501203025 58 321 0.0 3.0 0.00 0.00 0.00 56 1022.4
20260501202536 58 332 1.0 5.0 0.00 0.00 0.00 56 1022.4
20260501202033 58 0.0 0.0 0.00 0.00 0.00 55 1022.4
20260501201532 59 0.0 0.0 0.00 0.00 0.00 54 1022.4
20260501201021 59 336 1.0 3.0 0.00 0.00 0.00 54 1022.4
20260501200553 59 0.0 0.0 0.00 0.00 0.00 54 1022.4
20260501200036 60 0.0 0.0 0.00 0.00 0.00 53 1022.4
20260501195545 60 0.0 0.0 0.00 0.00 0.00 53 1022.3
20260501195021 60 0.0 0.0 0.00 0.00 0.00 52 1022.3
20260501194617 61 0.0 0.0 0.00 0.00 0.00 51 1022.3
20260501194029 61 0.0 0.0 0.00 0.00 0.00 51 1022.3
20260501193541 61 331 0.0 3.0 0.00 0.00 0.00 51 1022.3
20260501193025 62 334 0.0 3.0 0.00 0.00 0.00 50 1022.3
20260501192521 62 334 0.0 3.0 0.00 0.00 0.00 48 1022.2
20260501192030 63 339 1.0 3.0 0.00 0.00 0.00 47 1022.3
20260501191525 63 0.0 0.0 0.00 0.00 0.00 46 1022.3
20260501191025 64 0.0 0.0 0.00 0.00 0.00 45 1022.3
20260501190609 65 0.0 0.0 0.00 0.00 0.00 43 1022.2
20260501190050 65 347 0.0 3.0 0.00 0.00 0.00 42 1022.2
20260501185528 66 0.0 0.0 0.00 0.00 0.00 40 1022.2
20260501185112 0 0.0 0.0 0.00 0.00 0.00 1022.1
20260501184553 0 0.0 0.0 0.00 0.00 0.00 1022.2
20260501184032 0 0.0 0.0 0.00 0.00 0.00 1022.2
20260501183637 69 0.0 0.0 0.00 0.00 0.00 35 1022.1
20260501183021 69 0.0 0.0 0.00 0.00 0.00 34 1022.2
20260501182539 70 3 0.0 3.0 0.00 0.00 0.00 33 1022.1
20260501182030 70 0.0 0.0 0.00 0.00 0.00 32 1022.1
20260501181601 71 8 0.0 3.0 0.00 0.00 0.00 32 1022.1
20260501181021 71 19 0.0 5.0 0.00 0.00 0.00 32 1022.1
20260501180521 71 8 0.0 5.0 0.00 0.00 0.00 31 1022.0
20260501180030 72 360 0.0 3.0 0.00 0.00 0.00 31 1022.0
20260501175525 72 18 1.0 8.0 0.00 0.00 0.00 30 1022.0
20260501175045 72 6 2.0 10.0 0.00 0.00 0.00 29 1022.0
20260501174554 72 26 3.0 13.0 0.00 0.00 0.00 29 1022.0
20260501174050 72 8 2.0 8.0 0.00 0.00 0.00 29 1022.0
20260501173529 73 23 2.0 8.0 0.00 0.00 0.00 29 1022.0
20260501173038 73 15 3.0 8.0 0.00 0.00 0.00 29 1022.0
20260501172616 73 7 3.0 13.0 0.00 0.00 0.00 28 1022.1
20260501172033 74 9 3.0 8.0 0.00 0.00 0.00 28 1022.0
20260501171558 74 37 2.0 10.0 0.00 0.00 0.00 28 1022.1
20260501171022 74 25 5.0 18.0 0.00 0.00 0.00 27 1022.1
20260501170536 74 16 4.0 10.0 0.00 0.00 0.00 27 1022.1
20260501170142 74 19 3.0 13.0 0.00 0.00 0.00 27 1022.2
20260501165542 75 17 3.0 15.0 0.00 0.00 0.00 27 1022.2
20260501165022 74 25 3.0 10.0 0.00 0.00 0.00 27 1022.3
20260501164521 75 13 3.0 8.0 0.00 0.00 0.00 27 1022.3
20260501164030 75 22 4.0 13.0 0.00 0.00 0.00 27 1022.4
20260501163525 75 62 5.0 13.0 0.00 0.00 0.00 27 1022.4
20260501163025 75 39 2.0 10.0 0.00 0.00 0.00 27 1022.5
20260501162534 75 2 2.0 8.0 0.00 0.00 0.00 27 1022.5
20260501162030 74 35 3.0 13.0 0.00 0.00 0.00 28 1022.5
20260501161532 75 22 2.0 10.0 0.00 0.00 0.00 28 1022.6
20260501161022 75 26 2.0 10.0 0.00 0.00 0.00 26 1022.5
20260501160534 75 15 3.0 13.0 0.00 0.00 0.00 26 1022.7
20260501160113 75 12 2.0 13.0 0.00 0.00 0.00 26 1022.7
20260501155542 74 35 3.0 13.0 0.00 0.00 0.00 26 1022.7
20260501155022 74 13 3.0 10.0 0.00 0.00 0.00 26 1022.8
20260501154537 74 27 3.0 10.0 0.00 0.00 0.00 26 1022.8
20260501154046 74 98 6.0 15.0 0.00 0.00 0.00 26 1022.9
20260501153600 74 58 5.0 15.0 0.00 0.00 0.00 27 1022.9
20260501153121 74 359 1.0 8.0 0.00 0.00 0.00 27 1023.0
20260501152520 74 56 5.0 18.0 0.00 0.00 0.00 27 1023.1
20260501152046 74 8 4.0 13.0 0.00 0.00 0.00 27 1023.1
20260501151526 74 10 4.0 13.0 0.00 0.00 0.00 26 1023.2
20260501151027 74 20 3.0 13.0 0.00 0.00 0.00 27 1023.3
20260501150534 73 38 4.0 15.0 0.00 0.00 0.00 27 1023.3
20260501150053 73 25 4.0 13.0 0.00 0.00 0.00 27 1023.3